[[{"header":{"parameterUnit":"m.s-1","parameterCategory":1,"la1":30.2991,"la2":30.254,"lo1":-89.0895,"lo2":-89.0444,"dy":0.0017,"dx":0.0017,"nx":28,"ny":28,"refTime":"2024-10-16T09:00:00:Z","depth":0,"parameterNumber":2,"parameterNumberName":"U-component_of_WINDS"},"data":[0,0,0,0,0,0,0,0,0,0,0,0,0,0,0,0,0,0,0,0,0,0,0,0,0,0,0,0,0,0,0,0,0,0,0,0,0,0,0,0,0,0,0,0,0,0,0,0,0,0,0,0,0,0,0,0,0,0,-4.7132,-4.7133,0,-4.7195,-4.7196,-4.7197,-4.7088,-4.7085,-4.7081,-4.7078,-4.7141,-4.7146,-4.7151,0,0,0,0,0,0,0,0,0,0,0,0,0,-4.6915,-4.6919,-4.7132,-4.7133,-4.7134,-4.7195,-4.7196,-4.7197,-4.7089,-4.7085,-4.708,-4.7076,-4.7139,-4.7145,-4.7151,0,0,0,0,0,0,0,0,0,0,0,0,0,-4.6997,-4.6921,-4.7132,-4.7087,-4.7084,-4.7195,-4.7196,-4.7197,-4.709,-4.7084,-4.7079,-4.7074,-4.7137,-4.7145,-4.7152,-4.731,0,0,-4.7176,-4.7179,0,0,0,0,0,0,0,0,-4.6992,-4.7005,-4.7093,-4.709,-4.7087,-4.7128,-4.7143,-4.7235,-4.7091,-4.7088,-4.7077,-4.7071,-4.7141,-4.7148,-4.7172,-4.7313,-4.7315,-4.7176,-4.7181,-4.7184,-4.7186,0,0,0,0,0,0,0,-4.6987,-4.7001,-4.7157,-4.7094,-4.7091,-4.7063,-4.7069,-4.716,-4.7144,-4.7087,-4.708,-4.7089,-4.7138,-4.7165,-4.7173,-4.7316,-4.7176,-4.7183,-4.7188,-4.7191,-4.7588,-4.7594,0,0,0,0,0,0,-4.6987,-4.6997,-4.7155,-4.7159,-4.7025,-4.7071,-4.7078,-4.7121,-4.7143,-4.7141,-4.7093,-4.7084,-4.7155,-4.7164,-4.7175,-4.736,-4.7184,-4.7191,-4.7196,-4.7582,-4.7589,-4.7596,0,0,0,0,0,0,-4.6983,-4.7002,-4.7152,-4.7076,-4.7093,-4.7081,-4.713,-4.7125,-4.7151,-4.7148,-4.7144,-4.7124,-4.7151,-4.7164,-4.7277,-4.7361,-4.7195,-4.7202,-4.7575,-4.7584,-4.7593,-4.7734,0,0,0,0,0,0,-4.6977,-4.7001,-4.7062,-4.7078,-4.7098,-4.7255,-4.7135,-4.713,-4.7165,-4.7153,-4.7175,-4.7173,-4.7147,-4.7266,-4.7284,-4.7369,-4.7208,-4.7568,-4.7579,-4.759,-4.7721,-4.7746,-4.7767,0,0,0,0,0,-4.6969,-4.7099,-4.7065,-4.7085,-4.7173,-4.726,-4.7271,-4.7239,-4.7172,-4.7233,-4.723,-4.7173,-4.7348,-4.7278,-4.7298,-4.7386,-4.7562,-4.7576,-4.7589,-4.7711,-4.7741,-4.7767,0,0,0,0,0,0,-4.7092,-4.71,-4.7063,-4.7202,-4.7231,-4.7242,-4.7317,-4.7272,-4.7321,-4.7307,-4.7264,-4.727,-4.7392,-4.74,-4.7322,-4.7539,-4.7444,-4.7462,-4.753,-4.7559,-4.7581,-4.7577,-4.7214,0,0,0,0,0,-4.7135,-4.7206,-4.7208,-4.733,-4.7347,-4.733,-4.7366,-4.7339,-4.7367,-4.7379,-4.7385,-4.7414,-4.7475,-4.7517,-4.7574,-4.7721,-4.7724,-4.7791,-4.7814,-4.7833,-4.785,-4.7928,-4.7957,-4.764,-4.764,-4.764,0,0,-4.7225,-4.7238,-4.7285,-4.7355,-4.7375,-4.7448,-4.7341,-4.7423,-4.7477,-4.7391,-4.7499,-4.7504,-4.7533,-4.7665,-4.7722,-4.7675,-4.7937,-4.785,-4.7865,-4.7872,-4.7944,-4.7975,-4.8001,-4.7649,-4.7647,-4.7646,0,0,-4.7427,-4.7444,-4.7547,-4.7569,-4.76,-4.7587,-4.7612,-4.7629,-4.7629,-4.7737,-4.7673,-4.7736,-4.7843,-4.7867,-4.7893,-4.8102,-4.8051,-4.8121,-4.8242,-4.8319,-4.8344,-4.8366,-4.8441,-4.8468,-4.8137,-4.8138,-4.8138,0,-4.7535,-4.7644,-4.7606,-4.7693,-4.7725,-4.7651,-4.7755,-4.7777,-4.7825,-4.7848,-4.7794,-4.7927,-4.7941,-4.8077,-4.8128,-4.8151,-4.8177,-4.8119,-4.8343,-4.8365,-4.8385,-4.8456,-4.8484,-4.8146,-4.8145,-4.8144,-4.8143,0,-4.7775,-4.7851,-4.7931,-4.7979,-4.802,-4.8115,-4.8091,-4.8137,-4.8105,-4.8098,-4.8207,-4.8222,-4.828,-4.8309,-4.8279,-4.8441,-4.841,-4.8351,-4.8254,-4.8424,-4.849,-4.8517,-4.8158,-4.8155,-4.8153,-4.815,0,0,-4.8058,-4.8083,-4.8113,-4.8134,-4.8162,-4.822,-4.831,-4.8367,-4.8408,-4.8442,-4.8517,-4.8609,-4.8553,-4.8583,-4.8554,-4.8621,-4.8786,-4.8553,-4.8553,-4.8597,-4.8965,-4.901,-4.9042,-4.8752,-4.8757,-4.8761,-4.8962,0,-4.8259,-4.8417,-4.8385,-4.8539,-4.8609,-4.8538,-4.8617,-4.8642,-4.8637,-4.8694,-4.8688,-4.8754,-4.8676,-4.8693,-4.8756,-4.8753,-4.886,-4.8738,-4.8821,-4.8824,-4.8817,-4.9077,-4.9126,-4.9315,-4.8988,-4.8992,-4.8995,0,-4.8515,-4.856,-4.8722,-4.8738,-4.8766,-4.8838,-4.8887,-4.8943,-4.8969,-4.896,-4.8993,-4.8951,-4.904,-4.8942,-4.9063,-4.8981,-4.9013,-4.9016,-4.9022,-4.903,-4.8921,-4.9092,-4.9375,-4.9404,-4.9035,-4.9032,-4.9029,0,-4.8707,-4.8807,-4.8917,-4.8936,-4.8958,-4.901,-4.9021,-4.9041,-4.9077,-4.912,-4.9142,-4.9194,-4.9223,-4.9264,-4.9236,-4.9167,-4.9363,-4.9262,-4.9358,-4.9359,-4.9404,-4.9402,-4.9697,-4.9423,-4.9422,-4.9422,-4.9421,0,-4.8936,-4.9038,-4.9003,-4.9071,-4.9182,-4.9143,-4.9254,-4.9256,-4.9275,-4.9341,-4.9282,-4.9345,-4.9304,-4.9364,-4.9342,-4.9446,-4.946,-4.9455,-4.9448,-4.9461,-4.9462,-4.9482,-4.9469,-4.9429,-4.9428,-4.9426,-4.9425,0,-4.9169,-4.915,-4.9265,-4.9275,-4.928,-4.9362,-4.937,-4.9432,-4.9422,-4.9506,-4.9523,-4.9507,-4.9574,-4.955,-4.9621,-4.9607,-4.974,-4.9715,-4.9732,-4.9726,-4.9823,-4.9815,-5.0143,-5.0184,-4.9883,-4.9885,-4.9888,0,-4.9317,-4.9394,-4.9412,-4.9453,-4.9468,-4.9534,-4.957,-4.9533,-4.9574,-4.9608,-4.9667,-4.9728,-4.9775,-4.9885,-4.9879,-4.9933,-4.991,-5.0021,-4.9918,-4.9928,-4.9912,-4.9909,-4.9916,-5.0042,-5.0046,-5.0049,-5.0051,0,-4.9583,-4.9569,-4.9624,-4.9676,-4.9722,-4.976,-4.9794,-4.983,-4.9795,-4.9843,-4.9911,-4.9947,-5.0019,-5.0081,-5.0129,-5.0138,-5.009,-5.0083,-5.0108,-5.0123,-5.013,-5.0128,-4.9789,-5.0076,-5.0074,-5.0072,-5.007,-5.0069,-4.9779,-4.9843,-4.9866,-4.9929,-4.9951,-4.9983,-5.0042,-5.0039,-5.0095,-5.0152,-5.0126,-5.0204,-5.0226,-5.0286,-5.0302,-5.0362,-5.0319,-5.0355,-5.0365,-5.0374,-5.0387,-5.0119,-5.037,-5.0369,-5.0369,-5.0368,-5.0368,0,-5.0042,-5.0052,-5.0111,-5.016,-5.0209,-5.0158,-5.0192,-5.0236,-5.0306,-5.0331,-5.0379,-5.0456,-5.0515,-5.0513,-5.0568,-5.0616,-5.0595,-5.0632,-5.0628,-5.0631,-5.0423,-5.0396,-5.0648,-5.0648,-5.0648,-5.0648,-5.0648,-5.0648,-5.0184,-5.0291,-5.028,-5.0396,-5.0406,-5.0483,-5.0506,-5.0535,-5.0555,-5.0645,-5.0694,-5.0692,-5.0706,-5.076,-5.0812,-5.081,-5.0833,-5.0879,-5.0868,-5.0674,-5.0646,-5.062,-5.0594,-5.0884,-5.0884,-5.1071,-5.1073,-5.1075]},{"header":{"parameterUnit":"m.s-1","parameterCategory":1,"la1":30.2991,"la2":30.254,"lo1":-89.0895,"lo2":-89.0444,"dy":0.0017,"dx":0.0017,"nx":28,"ny":28,"refTime":"2024-10-16T09:00:00:Z","depth":0,"parameterNumber":3,"parameterNumberName":"V-component_of_WINDS"},"data":[0,0,0,0,0,0,0,0,0,0,0,0,0,0,0,0,0,0,0,0,0,0,0,0,0,0,0,0,0,0,0,0,0,0,0,0,0,0,0,0,0,0,0,0,0,0,0,0,0,0,0,0,0,0,0,0,0,0,-9.7274,-9.7275,0,-9.7381,-9.7382,-9.7383,-9.7254,-9.7249,-9.7244,-9.724,-9.7342,-9.7349,-9.7356,0,0,0,0,0,0,0,0,0,0,0,0,0,-9.6951,-9.6957,-9.7274,-9.7275,-9.7277,-9.738,-9.7382,-9.7383,-9.7255,-9.7249,-9.7243,-9.7238,-9.734,-9.7348,-9.7357,0,0,0,0,0,0,0,0,0,0,0,0,0,-9.7078,-9.696,-9.7274,-9.7225,-9.7222,-9.738,-9.7382,-9.7384,-9.7256,-9.7249,-9.7241,-9.7235,-9.7337,-9.7347,-9.7358,-9.7567,0,0,-9.7391,-9.7395,0,0,0,0,0,0,0,0,-9.7071,-9.709,-9.7231,-9.7229,-9.7225,-9.7297,-9.7305,-9.7445,-9.7258,-9.7243,-9.724,-9.7231,-9.7332,-9.7343,-9.7378,-9.7572,-9.7576,-9.7392,-9.7398,-9.7403,-9.7406,0,0,0,0,0,0,0,-9.7062,-9.7084,-9.7316,-9.7233,-9.723,-9.7195,-9.7205,-9.7331,-9.7326,-9.7243,-9.7234,-9.7249,-9.7329,-9.7368,-9.738,-9.7578,-9.7391,-9.7401,-9.7407,-9.7412,-9.7946,-9.7954,0,0,0,0,0,0,-9.706,-9.7078,-9.7312,-9.7319,-9.7129,-9.7207,-9.7218,-9.7281,-9.7324,-9.7324,-9.7255,-9.7243,-9.7353,-9.7367,-9.7383,-9.763,-9.7403,-9.7413,-9.7419,-9.7939,-9.7948,-9.7956,0,0,0,0,0,0,-9.7053,-9.7082,-9.7308,-9.7196,-9.7222,-9.722,-9.7291,-9.7287,-9.7326,-9.7333,-9.7331,-9.7297,-9.7348,-9.7368,-9.7522,-9.7632,-9.7418,-9.7427,-9.7929,-9.7942,-9.7952,-9.8126,0,0,0,0,0,0,-9.7045,-9.7081,-9.7162,-9.7199,-9.7229,-9.7449,-9.7298,-9.7294,-9.7345,-9.733,-9.7371,-9.7371,-9.7344,-9.7507,-9.7533,-9.7643,-9.7436,-9.792,-9.7935,-9.7949,-9.8111,-9.8143,-9.817,0,0,0,0,0,-9.7034,-9.7205,-9.7167,-9.7196,-9.7331,-9.7455,-9.7472,-9.744,-9.7355,-9.7435,-9.744,-9.737,-9.7616,-9.7524,-9.7552,-9.7667,-9.7913,-9.7931,-9.7947,-9.8098,-9.8136,-9.8169,0,0,0,0,0,0,-9.7179,-9.7209,-9.7167,-9.7356,-9.7405,-9.7433,-9.7534,-9.7482,-9.7553,-9.7536,-9.749,-9.75,-9.7665,-9.7681,-9.7578,-9.787,-9.775,-9.7774,-9.7854,-9.7891,-9.792,-9.7912,-9.7445,0,0,0,0,0,-9.7233,-9.7334,-9.7354,-9.7519,-9.7546,-9.7537,-9.7589,-9.756,-9.7607,-9.7626,-9.7642,-9.7689,-9.7776,-9.7834,-9.7915,-9.8112,-9.8118,-9.8205,-9.8234,-9.8258,-9.8279,-9.8384,-9.8422,-9.8014,-9.8014,-9.8013,0,0,-9.7346,-9.7375,-9.7441,-9.7549,-9.7583,-9.7687,-9.7554,-9.7669,-9.7744,-9.7643,-9.779,-9.7804,-9.7852,-9.8029,-9.8108,-9.8047,-9.8393,-9.8281,-9.83,-9.8308,-9.8406,-9.8444,-9.8479,-9.8026,-9.8023,-9.8022,0,0,-9.7604,-9.7637,-9.7778,-9.7815,-9.7869,-9.7862,-9.7896,-9.7933,-9.7938,-9.8086,-9.8012,-9.8099,-9.8251,-9.8289,-9.8328,-9.86,-9.8538,-9.8627,-9.8781,-9.8883,-9.8915,-9.8943,-9.904,-9.9075,-9.8648,-9.8649,-9.8649,0,-9.7737,-9.7892,-9.7856,-9.7977,-9.8026,-9.7941,-9.8082,-9.8119,-9.8196,-9.823,-9.8162,-9.8351,-9.8377,-9.8561,-9.8628,-9.8663,-9.8698,-9.8622,-9.8914,-9.8942,-9.8968,-9.9059,-9.9095,-9.8659,-9.8658,-9.8657,-9.8656,0,-9.8052,-9.8161,-9.8267,-9.8347,-9.8407,-9.8537,-9.8519,-9.8584,-9.855,-9.8549,-9.8699,-9.8728,-9.8813,-9.8855,-9.8821,-9.9034,-9.8995,-9.8922,-9.8799,-9.9018,-9.9103,-9.9137,-9.8674,-9.8671,-9.8667,-9.8665,0,0,-9.8404,-9.8463,-9.8502,-9.8537,-9.859,-9.8672,-9.8797,-9.8883,-9.8939,-9.8994,-9.9097,-9.9228,-9.916,-9.9204,-9.9174,-9.9264,-9.9477,-9.9179,-9.9179,-9.9233,-9.9711,-9.9766,-9.9808,-9.9436,-9.9442,-9.9448,-9.9707,0,-9.8663,-9.8883,-9.8854,-9.9064,-9.9163,-9.9084,-9.9192,-9.9235,-9.9238,-9.9319,-9.932,-9.9414,-9.9318,-9.9344,-9.9429,-9.9433,-9.9572,-9.9414,-9.9529,-9.9533,-9.9519,-9.9852,-9.991,-10.0154,-9.974,-9.9746,-9.975,0,-9.8994,-9.9064,-9.9285,-9.9323,-9.9363,-9.9462,-9.9537,-9.9617,-9.9663,-9.9658,-9.9709,-9.9662,-9.9785,-9.9661,-9.9828,-9.9721,-9.9766,-9.9775,-9.9784,-9.9793,-9.9655,-9.9869,-10.0231,-10.0267,-9.9802,-9.9798,-9.9794,0,-9.9228,-9.9377,-9.9529,-9.9561,-9.9609,-9.968,-9.9702,-9.9742,-9.9795,-9.986,-9.9893,-9.9971,-10.0013,-10.0074,-10.0048,-9.9961,-10.022,-10.0094,-10.0218,-10.0219,-10.0276,-10.0272,-10.0649,-10.0306,-10.0306,-10.0305,-10.0304,0,-9.952,-9.9658,-9.9635,-9.9728,-9.9879,-9.9844,-9.9994,-10.0006,-10.0042,-10.0134,-10.0069,-10.0156,-10.0118,-10.0202,-10.0182,-10.0323,-10.0343,-10.034,-10.0333,-10.0346,-10.0347,-10.0375,-10.0357,-10.0314,-10.0312,-10.031,-10.0309,0,-9.9807,-9.9798,-9.9957,-9.999,-10.0001,-10.0111,-10.0138,-10.0224,-10.0221,-10.0338,-10.0363,-10.0358,-10.0453,-10.0434,-10.0539,-10.0525,-10.0702,-10.0674,-10.0688,-10.0681,-10.0805,-10.0793,-10.1212,-10.1265,-10.0889,-10.0893,-10.0896,0,-9.9994,-10.0098,-10.0143,-10.0201,-10.023,-10.0324,-10.0379,-10.0347,-10.0405,-10.0466,-10.0544,-10.0634,-10.0705,-10.086,-10.0864,-10.0943,-10.0916,-10.1058,-10.0927,-10.0937,-10.0917,-10.0912,-10.0921,-10.1083,-10.1088,-10.1091,-10.1094,0,-10.0325,-10.0316,-10.0398,-10.0479,-10.0547,-10.0608,-10.0663,-10.0713,-10.0686,-10.0755,-10.0853,-10.0908,-10.1015,-10.1105,-10.1178,-10.1198,-10.1142,-10.1135,-10.1168,-10.1181,-10.1185,-10.1184,-10.0757,-10.1125,-10.1122,-10.112,-10.1118,-10.1117,-10.0568,-10.0657,-10.0702,-10.0796,-10.0834,-10.0887,-10.0969,-10.0978,-10.106,-10.1146,-10.1122,-10.1233,-10.1274,-10.1367,-10.1396,-10.1481,-10.1427,-10.1475,-10.1487,-10.1499,-10.1514,-10.1172,-10.1494,-10.1493,-10.1492,-10.1491,-10.1491,0,-10.0895,-10.0921,-10.1008,-10.1088,-10.1161,-10.1104,-10.1161,-10.1225,-10.1325,-10.137,-10.1441,-10.1553,-10.1639,-10.165,-10.1731,-10.1797,-10.1773,-10.1819,-10.1813,-10.1819,-10.1557,-10.1521,-10.1837,-10.1837,-10.1837,-10.1837,-10.1837,-10.1837,-10.1075,-10.1222,-10.1218,-10.1383,-10.1406,-10.1517,-10.1555,-10.1602,-10.1638,-10.1767,-10.1839,-10.1847,-10.1877,-10.196,-10.2036,-10.2036,-10.2069,-10.2125,-10.2116,-10.1872,-10.1837,-10.1804,-10.177,-10.2133,-10.2133,-10.237,-10.2372,-10.2374]}]]